Wind_Speed
21 24 26 28 30 35 34 35 32 25 27 34 42 43 42 44 47 28 20 14 11 19 22 23 18 18 16 17 19 18 16 16 13 8 3 2 4 4 3 4 4 6 7
24 28 32 30 35 35 34 34 28 29 32 40 39 41 43 44 36 22 18 6 13 16 21 26 19 17 14 15 17 15 14 15 13 9 9 6 5 4 2 2 3 4 5
29 30 32 32 32 31 36 29 27 30 33 37 41 43 39 28 23 20 14 4 11 14 20 25 21 15 12 11 11 14 15 16 16 13 8 4 2 2 2 1 5 3 3
30 32 32 34 35 32 27 29 29 31 33 37 38 37 22 22 20 18 9 4 10 12 20 25 21 18 13 7 6 8 10 11 12 12 8 9 7 4 5 3 4 3 3
32 32 33 32 29 27 29 31 33 32 33 34 32 22 21 21 18 12 6 4 7 11 16 21 21 21 16 10 4 4 2 4 6 9 10 12 13 9 7 6 5 4 4
30 28 26 22 26 29 28 28 29 30 32 25 20 21 19 14 12 6 6 5 7 12 13 17 16 17 18 12 6 2 1 1 4 4 7 10 12 12 7 5 6 5 5
19 20 21 23 26 25 25 26 27 27 19 18 18 15 14 15 11 7 8 7 10 13 16 15 14 13 13 13 8 1 2 2 3 2 3 8 9 10 9 6 6 5 5
18 21 24 28 29 30 26 27 22 16 17 15 12 11 12 12 12 11 10 10 13 15 16 16 15 11 9 9 12 11 3 3 4 7 7 5 6 7 7 7 5 3 4
20 17 17 17 23 24 25 19 14 15 12 9 9 8 8 12 14 13 13 16 20 24 24 24 27 24 15 9 12 14 13 7 8 15 14 10 5 5 4 5 5 4 4
13 18 20 23 24 15 12 13 13 8 6 9 9 10 13 18 19 20 20 20 20 21 28 31 30 30 27 20 10 6 7 12 15 16 32 20 11 7 4 2 2 4 3
18 22 21 14 10 10 12 7 4 9 14 13 11 11 15 13 17 19 20 19 21 27 30 29 37 33 35 31 25 11 8 7 9 16 30 22 20 14 9 8 4 1 4
12 7 7 8 9 7 2 9 13 14 14 15 14 15 15 15 17 20 20 20 22 26 25 25 29 30 32 35 30 15 2 11 3 24 27 24 18 18 17 14 11 9 4
4 7 7 7 1 6 12 14 14 14 14 16 15 14 16 18 20 21 20 21 23 22 24 24 27 28 24 28 31 26 13 9 7 22 30 27 20 22 20 19 16 15 11
6 6 3 3 12 15 15 14 14 16 18 19 17 15 17 16 16 17 17 19 22 21 23 22 23 21 19 31 35 30 24 12 3 12 18 19 16 23 26 24 23 20 18
2 2 10 15 14 14 14 15 18 17 18 19 16 14 16 15 15 16 17 19 21 22 23 20 23 20 19 23 27 37 36 30 19 22 18 19 20 19 26 31 29 24 20
9 15 16 14 14 13 15 17 17 15 15 15 16 17 14 18 18 20 21 21 22 23 23 24 23 21 21 20 22 25 29 32 37 42 35 24 25 16 16 32 32 33 26
15 16 15 14 15 15 14 14 13 15 17 16 16 17 17 18 19 19 21 21 22 23 23 23 24 20 22 25 26 26 27 30 35 47 47 37 28 30 18 17 35 32 32
15 15 14 15 15 14 15 14 14 14 15 16 17 17 18 19 20 20 21 21 23 23 24 22 22 22 18 21 25 33 30 31 30 41 44 46 40 34 29 20 32 37 32
13 13 14 12 12 12 12 12 12 14 15 16 17 17 18 18 19 19 20 20 23 24 25 25 23 23 14 15 21 31 34 33 30 34 40 44 41 40 36 30 14 37 36
15 13 11 10 9 9 9 9 10 12 13 14 15 15 16 17 17 18 20 20 22 24 25 26 24 24 17 16 20 29 36 32 33 30 40 34 38 43 38 34 21 12 37
12 11 9 8 7 7 7 9 10 11 12 14 15 16 18 18 17 18 19 22 24 27 27 25 22 21 16 18 22 27 32 34 33 33 38 32 35 34 34 42 32 18 11
10 9 7 6 4 3 5 9 10 12 15 17 18 19 18 17 19 21 24 26 27 29 29 26 21 19 18 24 26 25 35 35 36 37 33 33 28 35 39 31 38 31 16
10 8 6 4 2 3 8 10 12 15 16 18 19 20 18 20 22 24 26 28 30 31 26 21 18 20 21 21 25 22 32 35 35 33 38 31 38 27 32 37 31 26 28
11 9 8 7 5 5 10 12 13 15 18 19 20 19 20 23 25 28 30 33 31 30 25 23 24 26 28 32 30 29 35 37 32 31 39 32 41 24 29 27 40 30 24
12 11 9 8 8 9 11 14 16 17 19 19 18 20 23 26 29 31 34 36 34 31 28 26 27 29 30 33 37 40 42 43 37 34 39 43 39 33 27 25 30 27 23
15 13 11 11 11 13 15 16 18 20 21 20 20 21 24 28 32 35 38 39 36 33 32 31 32 38 40 40 41 42 40 44 43 35 40 42 38 36 27 18 43 24 28
Wind_Direction
247 254 280 290 304 302 304 304 306 301 305 296 306 310 318 319 324 339 337 342 20 29 17 23 29 34 49 63 78 84 90 90 91 92 96 95 86 83 97 84 56 60 69
265 270 278 287 293 297 296 301 295 303 305 299 309 313 318 319 322 336 342 3 48 25 28 29 31 45 62 83 81 83 85 84 90 86 77 79 87 72 46 131 101 67 70
268 268 272 280 286 293 296 295 292 295 294 304 310 315 321 319 331 338 353 44 62 21 24 24 30 41 70 87 85 85 79 80 76 74 87 63 46 19 73 163 152 109 92
266 268 273 279 286 290 293 294 299 298 299 305 311 315 322 329 334 335 357 89 49 11 23 23 35 44 53 95 79 88 87 85 73 68 54 54 52 35 72 78 120 113 112
275 276 277 281 286 280 283 292 292 303 310 307 313 317 330 331 336 352 42 97 29 7 9 21 34 39 45 59 108 92 83 89 69 68 60 42 36 38 62 67 74 102 79
276 275 282 276 278 285 290 296 310 312 308 310 316 328 334 351 7 39 67 44 360 358 19 19 23 26 38 46 60 138 147 239 63 65 43 43 31 31 44 53 63 73 82
274 279 273 274 275 295 304 306 311 308 310 319 328 344 11 33 37 37 37 19 4 4 359 8 5 17 33 37 37 76 207 278 294 295 3 24 21 25 16 11 54 49 54
270 266 272 275 285 288 299 296 305 306 317 330 351 21 38 42 51 47 31 22 17 18 22 24 18 16 36 37 32 23 338 275 296 285 300 331 357 12 15 15 32 49 42
262 275 290 290 294 294 292 293 301 316 326 357 16 25 49 51 62 57 46 47 59 59 51 43 38 39 42 47 45 31 22 351 326 326 294 284 314 319 343 31 23 29 33
274 286 288 288 291 286 289 301 319 331 10 36 52 65 53 54 59 63 66 58 51 42 40 41 42 40 35 41 44 27 36 33 48 285 291 277 265 278 261 319 16 48 28
283 283 284 283 276 294 307 321 22 69 80 73 72 67 72 69 46 62 56 51 49 43 40 43 44 40 42 40 42 41 1 60 45 202 276 272 262 259 247 244 254 275 53
273 263 258 275 303 312 66 97 91 81 78 81 82 73 67 65 56 51 48 44 36 42 42 38 31 42 44 37 41 43 347 7 41 290 274 274 262 255 248 247 250 261 279
255 278 286 298 321 112 109 102 90 84 71 72 73 71 63 62 54 47 37 30 31 37 36 21 34 33 35 37 36 32 28 26 170 254 265 283 275 254 247 247 248 247 255
289 289 276 165 128 119 110 101 87 80 68 66 66 74 68 57 45 36 28 23 23 29 26 26 20 25 35 28 38 33 33 27 318 323 326 337 309 266 250 244 245 240 241
263 182 141 132 122 110 101 88 88 76 72 63 63 57 43 38 31 24 21 13 10 9 10 12 16 26 22 25 37 38 32 36 28 18 5 352 340 312 251 241 232 231 233
138 133 132 123 115 105 98 95 81 67 68 60 49 45 40 31 28 25 21 15 11 8 2 2 6 11 10 14 10 7 16 21 24 25 20 13 6 347 310 233 234 229 232
136 133 125 122 114 105 97 88 75 66 60 53 39 32 27 20 19 15 10 6 6 3 3 3 1 2 4 18 14 4 2 12 13 14 15 18 11 12 348 255 229 231 231
134 131 127 119 112 102 94 86 77 65 54 39 30 25 18 9 7 6 4 1 2 359 359 356 359 355 360 12 30 19 9 3 7 11 10 10 16 8 12 8 231 227 226
136 130 125 117 109 101 93 81 62 53 45 34 25 15 13 6 1 2 2 1 2 357 355 351 345 350 349 9 13 7 11 359 356 3 4 8 2 3 6 9 353 231 229
138 137 128 122 108 92 76 59 47 42 33 25 20 14 8 1 359 358 358 357 354 352 348 347 346 349 339 340 345 349 357 355 2 358 1 2 9 7 356 359 6 244 230
145 143 140 137 118 89 58 36 28 21 16 9 7 0 359 356 356 355 351 352 347 346 343 344 345 340 340 332 332 335 344 342 344 356 355 352 3 3 356 352 355 4 249
162 161 169 160 137 72 27 17 9 4 1 356 355 352 353 354 353 351 349 345 342 342 340 338 339 339 327 331 329 323 340 338 339 345 353 4 355 6 14 358 355 341 340
180 186 199 207 213 326 344 353 357 353 348 350 348 347 349 351 348 346 342 339 338 338 339 334 330 335 333 344 342 329 339 339 333 333 350 351 359 347 4 17 2 333 332
205 211 226 244 257 297 324 336 340 340 341 345 343 343 345 344 340 341 341 339 336 335 333 328 317 319 325 329 337 336 339 340 327 325 337 352 344 338 356 9 19 1 321
227 231 234 240 258 290 309 321 327 332 336 340 337 335 336 338 339 339 341 338 333 337 337 320 321 325 327 330 333 333 331 331 333 328 330 338 340 346 349 7 8 8 341
243 244 246 248 264 286 303 314 324 328 334 336 329 326 332 333 335 337 340 336 334 329 330 323 324 324 325 328 330 330 328 328 334 326 326 332 335 337 320 331 333 358 359
Height
11013 11012 11009 11006 11004 11003 11001 10999 10998 10994 10992 10992 10987 10982 10978 10976 10973 10967 10963 10959 10956 10951 10948 10943 10939 10933 10929 10927 10926 10925 10926 10925 10926 10929 10930 10930 10930 10930 10929 10928 10927 10926 10924
11012 11011 11008 11004 11002 11002 10999 10998 10996 10992 10990 10986 10983 10980 10977 10974 10970 10966 10963 10960 10955 10952 10949 10945 10942 10938 10934 10933 10932 10932 10932 10930 10931 10933 10932 10931 10931 10930 10930 10930 10928 10928 10927
11009 11009 11007 11004 11001 10999 10997 10994 10991 10989 10986 10983 10980 10977 10974 10971 10968 10965 10962 10960 10956 10953 10951 10947 10943 10940 10937 10937 10936 10936 10936 10935 10935 10935 10934 10934 10932 10930 10930 10929 10928 10928 10928
11005 11004 11002 11000 10999 10996 10994 10991 10990 10987 10984 10982 10979 10976 10972 10968 10965 10963 10961 10960 10957 10955 10952 10948 10945 10942 10940 10938 10939 10939 10938 10937 10936 10935 10935 10935 10933 10931 10930 10929 10928 10928 10928
11000 10999 10998 10997 10994 10993 10990 10989 10987 10984 10981 10979 10977 10973 10970 10967 10963 10961 10961 10961 10958 10957 10954 10950 10947 10945 10942 10940 10940 10940 10940 10938 10936 10936 10937 10937 10935 10933 10931 10930 10929 10928 10929
10996 10994 10994 10994 10992 10990 10988 10987 10984 10981 10979 10976 10974 10971 10969 10966 10963 10962 10962 10962 10960 10958 10956 10952 10949 10947 10943 10941 10940 10940 10940 10938 10938 10938 10939 10938 10937 10935 10932 10931 10930 10929 10929
10992 10991 10991 10991 10989 10988 10986 10984 10982 10979 10976 10975 10973 10971 10969 10966 10963 10963 10963 10962 10960 10958 10955 10952 10950 10947 10945 10943 10942 10941 10941 10941 10941 10940 10940 10939 10937 10935 10934 10933 10931 10930 10930
10989 10989 10989 10988 10987 10986 10984 10982 10979 10977 10976 10974 10972 10971 10968 10966 10964 10965 10965 10963 10960 10957 10954 10951 10948 10945 10944 10944 10945 10947 10947 10946 10945 10945 10942 10938 10937 10936 10936 10934 10932 10931 10930
10987 10987 10987 10986 10985 10983 10981 10979 10977 10976 10975 10974 10971 10969 10967 10966 10964 10965 10966 10964 10960 10958 10955 10953 10949 10945 10943 10945 10949 10947 10946 10949 10954 10957 10950 10940 10936 10935 10936 10935 10934 10932 10931
10986 10985 10984 10983 10981 10979 10979 10978 10977 10976 10975 10974 10971 10970 10971 10970 10969 10967 10965 10965 10962 10959 10958 10955 10951 10949 10947 10945 10945 10939 10941 10951 10962 10940 10955 10948 10937 10934 10935 10935 10934 10932 10931
10982 10981 10981 10980 10979 10979 10978 10977 10977 10976 10976 10975 10972 10972 10972 10972 10974 10969 10966 10965 10963 10961 10957 10954 10952 10951 10951 10949 10941 10936 10938 10946 10955 10960 10953 10945 10939 10934 10933 10933 10933 10932 10931
10979 10978 10979 10979 10979 10979 10978 10978 10978 10977 10977 10977 10974 10973 10975 10974 10974 10971 10968 10966 10964 10963 10959 10956 10953 10952 10952 10952 10944 10938 10936 10944 10954 10948 10952 10940 10933 10931 10930 10930 10931 10931 10931
10977 10978 10978 10978 10979 10979 10980 10979 10979 10979 10979 10979 10977 10975 10975 10974 10973 10972 10971 10968 10965 10965 10962 10959 10956 10956 10954 10955 10948 10942 10944 10947 10953 10942 10947 10935 10928 10926 10925 10927 10928 10928 10928
10977 10977 10977 10979 10980 10981 10981 10980 10980 10980 10981 10981 10981 10980 10979 10978 10977 10976 10973 10969 10965 10966 10964 10962 10959 10959 10957 10954 10947 10944 10944 10946 10946 10943 10934 10926 10921 10919 10919 10921 10923 10924 10925
10976 10977 10979 10981 10982 10982 10983 10983 10982 10982 10982 10982 10982 10982 10981 10980 10978 10977 10974 10970 10966 10963 10963 10963 10961 10958 10955 10952 10949 10945 10942 10939 10938 10934 10929 10923 10918 10913 10911 10914 10916 10918 10920
10977 10979 10981 10982 10983 10983 10984 10984 10984 10984 10983 10983 10983 10982 10981 10979 10978 10975 10974 10972 10968 10963 10961 10959 10956 10953 10952 10951 10950 10947 10943 10939 10934 10928 10922 10917 10913 10908 10903 10904 10908 10911 10915
10979 10981 10982 10983 10984 10984 10985 10985 10986 10985 10984 10984 10983 10981 10980 10979 10976 10974 10972 10970 10969 10965 10963 10960 10956 10954 10952 10950 10948 10947 10943 10936 10931 10925 10919 10914 10909 10906 10900 10897 10899 10904 10907
10981 10983 10984 10985 10985 10986 10986 10987 10987 10986 10986 10984 10983 10981 10979 10978 10976 10974 10972 10969 10967 10965 10963 10960 10957 10955 10953 10950 10946 10943 10938 10935 10929 10924 10917 10910 10906 10901 10897 10892 10891 10894 10899
10983 10984 10985 10986 10987 10987 10988 10988 10988 10987 10986 10985 10983 10981 10980 10978 10975 10973 10971 10969 10966 10964 10961 10958 10956 10953 10951 10948 10944 10941 10937 10933 10928 10923 10916 10909 10901 10896 10893 10890 10887 10889 10895
10983 10985 10986 10987 10988 10989 10989 10989 10989 10988 10986 10985 10983 10982 10980 10977 10974 10972 10970 10968 10966 10962 10959 10956 10952 10950 10947 10946 10942 10938 10934 10931 10926 10921 10915 10909 10902 10894 10890 10886 10884 10885 10888
10984 10985 10987 10988 10989 10989 10989 10989 10988 10988 10986 10984 10983 10981 10978 10976 10973 10971 10968 10966 10962 10959 10956 10952 10949 10946 10944 10942 10939 10936 10933 10927 10924 10920 10914 10909 10903 10896 10889 10883 10881 10880 10881
10984 10986 10987 10989 10989 10989 10989 10988 10988 10987 10985 10983 10981 10978 10976 10973 10971 10969 10965 10962 10959 10957 10952 10949 10947 10944 10942 10939 10936 10933 10928 10925 10920 10918 10914 10908 10903 10895 10890 10886 10881 10877 10877
10983 10985 10987 10988 10988 10988 10988 10988 10987 10985 10983 10982 10979 10976 10974 10971 10968 10966 10964 10961 10957 10953 10950 10947 10943 10941 10937 10934 10931 10928 10925 10921 10916 10914 10911 10906 10901 10895 10889 10886 10880 10876 10874
10981 10983 10985 10986 10987 10987 10986 10986 10985 10984 10982 10979 10977 10975 10972 10969 10967 10964 10961 10957 10953 10948 10945 10942 10939 10936 10934 10930 10927 10923 10919 10917 10914 10911 10906 10904 10898 10894 10888 10884 10880 10877 10873
10979 10981 10982 10984 10984 10984 10984 10984 10983 10982 10980 10978 10975 10971 10969 10966 10963 10959 10956 10951 10946 10944 10940 10938 10934 10931 10927 10924 10921 10918 10914 10911 10906 10904 10902 10897 10894 10891 10888 10881 10878 10875 10873
10978 10978 10979 10981 10982 10982 10982 10981 10980 10978 10976 10974 10971 10969 10967 10963 10959 10954 10950 10947 10943 10938 10935 10932 10929 10925 10920 10917 10915 10912 10909 10905 10900 10897 10895 10892 10888 10884 10880 10880 10876 10871 10869